| time (UTC) | temp C | wind direction | speed KPH | gust KPH | rain 1hr cm | rain 24hr cm | rain mn cm | humidity % | barometer mb |
| 20260906080200 | 26 | 0.0 | 0.0 | 0.00 | 0.00 | 0.00 | 54 | 1019.6 | |
| 20260906074156 | 26 | 0.0 | 0.0 | 0.00 | 0.00 | 0.00 | 53 | 1019.5 | |
| 20260906072151 | 26 | 0.0 | 0.0 | 0.00 | 0.00 | 0.00 | 52 | 1019.6 | |
| 20260906070147 | 25 | 0.0 | 0.0 | 0.00 | 0.00 | 0.00 | 53 | 1019.6 | |
| 20260906064142 | 25 | 0.0 | 0.0 | 0.00 | 0.00 | 0.00 | 55 | 1019.5 | |
| 20260906062138 | 25 | 0.0 | 0.0 | 0.00 | 0.00 | 0.00 | 58 | 1019.4 | |
| 20260906060133 | 24 | 0.0 | 0.0 | 0.00 | 0.00 | 0.00 | 60 | 1019.3 | |
| 20260906054129 | 24 | 0.0 | 0.0 | 0.00 | 0.00 | 0.00 | 62 | 1019.2 | |
| 20260906052124 | 24 | 0.0 | 0.0 | 0.00 | 0.00 | 0.00 | 61 | 1019.1 | |
| 20260906050120 | 24 | 0.0 | 0.0 | 0.00 | 0.00 | 0.00 | 63 | 1019.0 | |
| 20260906044115 | 24 | 0.0 | 0.0 | 0.00 | 0.00 | 0.00 | 63 | 1018.9 | |
| 20260906042110 | 24 | 0.0 | 0.0 | 0.00 | 0.00 | 0.00 | 63 | 1018.8 | |
| 20260906040106 | 24 | 0.0 | 0.0 | 0.00 | 0.00 | 0.00 | 62 | 1018.7 | |
| 20260906034101 | 24 | 0.0 | 0.0 | 0.00 | 0.00 | 0.00 | 61 | 1018.5 | |
| 20260906032057 | 25 | 0.0 | 0.0 | 0.00 | 0.00 | 0.00 | 61 | 1018.5 | |
| 20260906030052 | 25 | 0.0 | 0.0 | 0.00 | 0.00 | 0.00 | 61 | 1018.6 | |
| 20260906024048 | 25 | 0.0 | 0.0 | 0.00 | 0.00 | 0.00 | 61 | 1018.5 | |
| 20260906022043 | 25 | 0.0 | 0.0 | 0.00 | 0.00 | 0.00 | 62 | 1018.7 | |
| 20260906020039 | 25 | 0.0 | 0.0 | 0.00 | 0.00 | 0.00 | 62 | 1018.5 | |
| 20260906014034 | 25 | 0.0 | 0.0 | 0.00 | 0.00 | 0.00 | 61 | 1018.6 | |
| 20260906012030 | 25 | 0.0 | 0.0 | 0.00 | 0.00 | 0.00 | 61 | 1018.6 | |
| 20260906010025 | 25 | 0.0 | 0.0 | 0.00 | 0.00 | 0.00 | 61 | 1018.7 | |
| 20260906004021 | 25 | 0.0 | 0.0 | 0.00 | 0.00 | 0.00 | 61 | 1018.5 | |
| 20260906002016 | 25 | 0.0 | 0.0 | 0.00 | 0.00 | 0.00 | 61 | 1018.4 | |
| 20260906000012 | 26 | 0.0 | 0.0 | 0.00 | 0.00 | 0.00 | 61 | 1018.5 | |
| 20260905234007 | 26 | 0.0 | 0.0 | 0.00 | 0.00 | 0.00 | 60 | 1018.6 | |
| 20260905232003 | 26 | 0.0 | 0.0 | 0.00 | 0.00 | 0.00 | 60 | 1018.7 | |
| 20260905223954 | 26 | 0.0 | 0.0 | 0.00 | 0.00 | 0.00 | 60 | 1018.6 | |
| 20260905221949 | 26 | 0.0 | 0.0 | 0.00 | 0.00 | 0.00 | 60 | 1018.7 | |
| 20260905215943 | 27 | 0.0 | 0.0 | 0.00 | 0.00 | 0.00 | 60 | 1018.6 | |
| 20260905213939 | 27 | 0.0 | 0.0 | 0.00 | 0.00 | 0.00 | 61 | 1018.4 | |
| 20260905211933 | 27 | 0.0 | 0.0 | 0.00 | 0.00 | 0.00 | 61 | 1018.3 | |
| 20260905203923 | 27 | 0.0 | 0.0 | 0.00 | 0.00 | 0.00 | 60 | 1018.3 | |
| 20260905201918 | 27 | 0.0 | 0.0 | 0.00 | 0.00 | 0.00 | 60 | 1018.3 | |
| 20260905195913 | 27 | 0.0 | 0.0 | 0.00 | 0.00 | 0.00 | 59 | 1018.2 | |
| 20260905193908 | 27 | 0.0 | 0.0 | 0.00 | 0.00 | 0.00 | 59 | 1018.2 | |
| 20260905191904 | 27 | 0.0 | 0.0 | 0.00 | 0.00 | 0.00 | 59 | 1018.0 | |
| 20260905185859 | 28 | 0.0 | 0.0 | 0.00 | 0.00 | 0.00 | 59 | 1017.7 | |
| 20260905183855 | 28 | 0.0 | 0.0 | 0.00 | 0.00 | 0.00 | 58 | 1017.6 | |
| 20260905181850 | 28 | 0.0 | 0.0 | 0.00 | 0.00 | 0.00 | 57 | 1017.3 | |
| 20260905175846 | 28 | 0.0 | 0.0 | 0.00 | 0.00 | 0.00 | 54 | 1017.0 | |
| 20260905173841 | 28 | 0.0 | 0.0 | 0.00 | 0.00 | 0.00 | 51 | 1016.8 | |
| 20260905171837 | 29 | 0.0 | 0.0 | 0.00 | 0.00 | 0.00 | 48 | 1016.6 | |
| 20260905165832 | 30 | 0.0 | 0.0 | 0.00 | 0.00 | 0.00 | 46 | 1016.6 | |
| 20260905165455 | 30 | 0.0 | 0.0 | 0.00 | 0.00 | 0.00 | 46 | 1016.6 | |
| 20260905163450 | 30 | 0.0 | 0.0 | 0.00 | 0.00 | 0.00 | 47 | 1016.5 | |
| 20260905155441 | 30 | 0.0 | 0.0 | 0.00 | 0.00 | 0.00 | 40 | 1016.4 | |
| 20260905153437 | 30 | 0.0 | 0.0 | 0.00 | 0.00 | 0.00 | 42 | 1016.4 | |
| 20260905151432 | 30 | 0.0 | 0.0 | 0.00 | 0.00 | 0.00 | 43 | 1016.5 | |
| 20260905145427 | 30 | 0.0 | 0.0 | 0.00 | 0.00 | 0.00 | 46 | 1016.5 | |
| 20260905143423 | 31 | 0.0 | 0.0 | 0.00 | 0.00 | 0.00 | 44 | 1016.5 | |
| 20260905141419 | 31 | 0.0 | 0.0 | 0.00 | 0.00 | 0.00 | 42 | 1016.7 | |
| 20260905135414 | 31 | 0.0 | 0.0 | 0.00 | 0.00 | 0.00 | 40 | 1016.8 | |
| 20260905133409 | 31 | 0.0 | 0.0 | 0.00 | 0.00 | 0.00 | 37 | 1016.9 | |
| 20260905131405 | 32 | 0.0 | 0.0 | 0.00 | 0.00 | 0.00 | 32 | 1017.2 | |
| 20260905125400 | 32 | 0.0 | 0.0 | 0.00 | 0.00 | 0.00 | 34 | 1017.3 | |
| 20260905123356 | 32 | 0.0 | 0.0 | 0.00 | 0.00 | 0.00 | 33 | 1017.2 | |
| 20260905121351 | 31 | 0.0 | 0.0 | 0.00 | 0.00 | 0.00 | 32 | 1017.4 | |
| 20260905115347 | 31 | 0.0 | 0.0 | 0.00 | 0.00 | 0.00 | 32 | 1017.5 | |
| 20260905113342 | 31 | 0.0 | 0.0 | 0.00 | 0.00 | 0.00 | 33 | 1017.5 | |
| 20260905111338 | 31 | 0.0 | 0.0 | 0.00 | 0.00 | 0.00 | 32 | 1017.6 | |
| 20260905105333 | 30 | 0.0 | 0.0 | 0.00 | 0.00 | 0.00 | 31 | 1017.7 | |
| 20260905103329 | 30 | 0.0 | 0.0 | 0.00 | 0.00 | 0.00 | 32 | 1017.9 | |
| 20260905101324 | 30 | 0.0 | 0.0 | 0.00 | 0.00 | 0.00 | 33 | 1017.9 | |
| 20260905095320 | 29 | 0.0 | 0.0 | 0.00 | 0.00 | 0.00 | 34 | 1018.0 | |
| 20260905093316 | 28 | 0.0 | 0.0 | 0.00 | 0.00 | 0.00 | 35 | 1018.2 | |
| 20260905081258 | 27 | 0.0 | 0.0 | 0.00 | 0.00 | 0.00 | 42 | 1018.2 |